MPEC 2014-S67 : 2014 PH59
The following Minor Planet Electronic Circular may be linked-to from your own Web pages, but must not otherwise be redistributed electronically.A form allowing access to any MPEC is at the bottom of this page.


M.P.E.C. 2014-S67 Issued 2014 Sept. 23, 17:52 UT The Minor Planet Electronic Circulars contain information on unusual minor planets and routine data on comets. They are published on behalf of Commission 20 of the International Astronomical Union by the Minor Planet Center, Smithsonian Astrophysical Observatory, Cambridge, MA 02138, U.S.A. Prepared using the Tamkin Foundation Computer Network MPC@CFA.HARVARD.EDU URL https://www.minorplanetcenter.net/ ISSN 1523-6714 2014 PH59 Additional Observations: K14P59H C2014 08 23.53321 00 19 04.049-09 44 28.82 20.8 wLES067F51 K14P59H C2014 08 23.54594 00 19 02.992-09 44 12.43 20.8 wLES067F51 K14P59H C2014 08 23.55868 00 19 01.936-09 43 56.16 20.8 wLES067F51 K14P59H C2014 08 23.57139 00 19 00.889-09 43 39.94 20.7 wLES067F51 K14P59H C2014 08 30.50810 00 09 26.565-07 20 43.93 20.9 wLES067F51 K14P59H C2014 08 30.51913 00 09 25.514-07 20 30.94 20.9 wLES067F51 K14P59H C2014 08 30.53020 00 09 24.453-07 20 17.55 20.8 wLES067F51 K14P59H C2014 09 03.28833 00 03 44.35 -06 07 02.8 20.1 VoES067691 K14P59H C2014 09 03.30863 00 03 42.37 -06 06 41.6 20.7 VoES067691 K14P59H C2014 09 03.32892 00 03 40.35 -06 06 17.9 20.8 VoES067691 K14P59H C2014 09 19.33404 23 39 46.428-01 37 28.77 20.5 wLES067F51 K14P59H C2014 09 19.34549 23 39 45.444-01 37 18.96 20.4 wLES067F51 K14P59H C2014 09 19.35692 23 39 44.473-01 37 08.99 20.5 wLES067F51 K14P59H C2014 09 19.36837 23 39 43.470-01 36 59.34 20.4 wLES067F51 K14P59H KC2014 09 20.35571 23 38 24.20 -01 22 59.0 20.4 RoES067291 K14P59H KC2014 09 20.35837 23 38 23.98 -01 22 56.7 20.4 RoES067291 K14P59H KC2014 09 20.36103 23 38 23.76 -01 22 54.3 20.4 RoES067291 K14P59H KC2014 09 22.42501 23 35 45.48 -00 54 29.3 20.5 RoES067291 K14P59H KC2014 09 22.42744 23 35 45.26 -00 54 27.1 20.5 RoES067291 Observer details: 291 LPL/Spacewatch II. Observers R. A. Mastaler, T. H. Bressi. 1.8-m f/2.7 reflector + CCD. 691 Steward Observatory, Kitt Peak. Observer J. V. Scotti. 0.9-m f/3 reflector + CCD. F51 Pan-STARRS 1, Haleakala. Observers N. Primak, A. Schultz, T. Goggia, M. Willman. Measurers B. Bolin, K. Chambers, S. Chastel, L. Denneau, H. Flewelling, M. Huber, E. Magnier, E. Schunova, R. Wainscoat, C. Waters. 1.8-m Ritchey-Chretien + CCD. Orbital elements: 2014 PH59 Earth MOID = 0.3478 AU Epoch 2014 Dec. 9.0 TT = JDT 2457000.5 MPC M 38.13430 (2000.0) P Q n 0.23031054 Peri. 299.61845 +0.41568766 +0.90927440 a 2.6358873 Node 354.81414 -0.73567894 +0.32284448 e 0.5099905 Incl. 13.16569 -0.53477122 +0.26266234 P 4.28 H 20.6 G 0.15 U 3 Residuals in seconds of arc 140803 F51 0.1+ 0.0 140823 F51 0.1+ 0.1- 140919 F51 0.0 0.1- 140803 F51 0.0 0.0 140823 F51 0.2+ 0.1- 140919 F51 0.2+ 0.0 140803 F51 0.1+ 0.0 140830 F51 0.0 0.0 140919 F51 0.0 0.2- 140803 F51 0.0 0.1+ 140830 F51 0.1+ 0.2- 140920 291 0.2- 0.0 140807 291 0.4- 0.7+ 140830 F51 0.2+ 0.1- 140920 291 0.1- 0.0 140807 291 0.4- 0.4- 140903 691 0.7- 1.8+ 140920 291 0.1- 0.2+ 140807 291 0.2- 0.0 140903 691 0.5- 0.1- 140922 291 0.3+ 0.1- 140823 F51 0.1+ 0.2- 140903 691 0.9- 0.4+ 140922 291 0.2- 0.1+ 140823 F51 0.1+ 0.1- 140919 F51 0.0 0.0 Ephemeris: 2014 PH59 a,e,i = 2.64, 0.51, 13 q = 1.2916 Date TT R. A. (2000) Decl. Delta r Elong. Phase V 2014 08 24 00 18 28.6 -09 34 27 0.4703 1.4334 148.5 21.6 20.8 ... 2014 09 08 23 56 26.5 -04 40 02 0.5062 1.5054 167.1 8.6 20.6 ... 2014 09 16 23 44 24.2 -02 27 03 0.5424 1.5475 177.3 1.7 20.4 ... 2014 09 22 23 36 18.0 -01 00 07 0.5778 1.5804 175.2 3.0 20.7 2014 09 23 23 35 03.7 -00 46 40 0.5844 1.5860 174.0 3.8 20.8 2014 09 24 23 33 51.7 -00 33 31 0.5912 1.5916 172.8 4.5 20.9 ... 2014 09 30 23 27 30.5 +00 39 37 0.6363 1.6259 165.7 8.7 21.3 ... 2014 10 08 23 21 29.6 +02 03 36 0.7072 1.6728 156.9 13.6 21.7 ... 2014 10 23 23 17 42.5 +04 11 38 0.8701 1.7636 141.9 20.4 22.5 A. U. Tomatic (C) Copyright 2014 MPC M.P.E.C. 2014-S67


Enter an MPEC number in one of the following forms:
- 1997-B01 (the full form)
- J97B01 (the packed version of the full form)
- B01 (the abbreviated form)